{"data":{"norad_id":65019,"epoch":"2026-05-24T18:08:58.487136Z","epoch_age_seconds":92514,"freshness":"FRESH","line1":"1 65019U 25161E   26144.75623249  .00016602  00000+0  57123-3 0  9996","line2":"2 65019  53.1616 301.0494 0001169  79.2276 280.8856 15.30210622 47084","mean_motion":15.30210622,"eccentricity":0.0001169,"inclination_deg":53.1616,"raan_deg":301.0494,"arg_perigee_deg":79.2276,"mean_anomaly_deg":280.8856,"bstar":0.00057123,"rev_number":4708,"period_min":94.104692471544,"perigee_km":474.38220107601,"apogee_km":475.98450737482,"semimajor_km":6853.3203542254,"source":"CELESTRAK","updated_at":"2026-05-25T13:38:20.666721Z"}}